{"data":{"norad_id":45731,"epoch":"2026-05-25T06:00:02.000160Z","epoch_age_seconds":56689,"freshness":"FRESH","line1":"1 45731U 20038B   26145.25002315 -.00006728  00000+0 -62938-4 0  9995","line2":"2 45731  53.0445 212.3694 0001385  78.9275 197.8677 15.64551243  5944","mean_motion":15.64551243,"eccentricity":0.0001385,"inclination_deg":53.0445,"raan_deg":212.3694,"arg_perigee_deg":78.9275,"mean_anomaly_deg":197.8677,"bstar":-6.2938e-5,"rev_number":594,"period_min":92.039171388137,"perigee_km":373.59444215987,"apogee_km":375.46493083203,"semimajor_km":6752.666686496,"source":"CELESTRAK","updated_at":"2026-05-25T13:38:16.432260Z"}}